Tracking 35274 objects as of 10-Sep-2026
HD Live streaming from Space Station
objects crossing your sky now

STARLINK-2081

Track STARLINK-2081 now!
10-day predictions
STARLINK-2081 is classified as:


NORAD ID: 47366
Int'l Code: 2021-005T
Launch date: January 20, 2021
Source: United States (US)
Launch site: AIR FORCE EASTERN TEST RANGE (AFETR)
Your satellite tracking list
Your tracking list is empty




NASA's NSSDC Master Catalog

Two Line Element Set (TLE):
1 47366U 21005T   26252.79881920  .00000352  00000-0  23101-4 0  9996
2 47366  53.1588 285.7978 0001284  81.0844 279.0303 15.31701987311230
Source of the keplerian elements: AFSPC